Date,TemperatureHighF,TemperatureAvgF,TemperatureLowF,DewpointHighF,DewpointAvgF,DewpointLowF,HumidityHigh,HumidityAvg,HumidityLow,PressureMaxIn,PressureMinIn,WindSpeedMaxMPH,WindSpeedAvgMPH,GustSpeedMaxMPH,PrecipitationSumIn
2013-3-1,44,39,35,28,25,23,69,56,46,29.65,29.56,3,0,8,0.00
2013-3-2,44,37,30,32,24,14,85,60,40,29.65,29.50,6,0,8,0.00
2013-3-3,40,32,23,17,14,12,73,49,39,29.68,29.56,5,1,8,0.00
2013-3-4,55,38,24,20,14,8,62,38,20,29.74,29.62,5,0,225,0.00
2013-3-5,41,38,34,39,30,14,98,73,40,29.74,29.29,2,0,7,0.04
2013-3-6,43,38,33,39,21,16,98,52,41,29.79,29.29,8,1,10,0.00
2013-3-7,48,37,27,28,22,18,86,58,39,30.03,29.74,6,0,8,0.00
2013-3-8,54,40,25,28,22,17,85,51,32,30.03,29.94,4,0,6,0.00
2013-3-9,63,40,26,32,24,0,82,56,28,30.06,29.91,3,0,5,0.00
2013-3-10,66,49,36,36,32,26,83,54,33,30.03,29.85,4,0,9,0.00
2013-3-11,55,48,40,49,39,30,98,71,48,29.91,29.56,2,0,4,0.38
2013-3-12,60,52,40,51,40,27,98,67,37,29.71,29.44,4,0,6,0.95
2013-3-13,48,42,33,32,22,13,75,46,35,29.88,29.68,7,1,226,0.00
2013-3-14,51,39,29,20,15,10,49,38,28,29.97,29.85,6,1,8,0.00
2013-3-15,65,38,29,35,21,15,68,50,33,29.88,29.62,3,0,5,0.00
2013-3-16,80,59,41,47,42,32,91,58,27,29.62,29.41,8,1,13,0.00
2013-3-17,65,53,40,51,45,38,93,73,54,29.88,29.59,6,0,12,0.00
2013-3-18,40,38,37,39,38,36,98,98,93,29.88,29.62,3,0,5,0.54
2013-3-19,60,47,36,43,28,13,98,58,26,29.76,29.56,6,1,9,0.00
2013-3-20,56,44,30,26,17,12,61,36,22,29.85,29.50,6,1,13,0.00
2013-3-21,43,34,28,26,12,8,54,39,33,29.71,29.53,5,1,10,0.00
2013-3-22,54,37,20,21,14,7,75,42,27,29.76,29.62,4,0,7,0.00
2013-3-23,58,45,35,34,26,17,62,46,36,29.76,29.62,4,0,6,69.90
2013-3-24,46,42,36,40,38,33,98,88,59,29.65,29.26,2,0,4,0.87
2013-3-25,43,38,34,35,26,19,98,66,41,29.56,29.26,9,1,12,0.00
2013-3-26,45,39,31,22,20,17,62,48,40,29.85,29.53,4,1,8,0.00
2013-3-27,47,39,32,24,20,16,66,47,37,29.97,29.82,4,1,7,0.00
2013-3-28,53,38,25,26,21,16,87,53,30,29.97,29.88,4,1,8,0.00
2013-3-29,60,43,27,28,23,18,80,48,25,30.03,29.85,6,1,8,0.00
2013-3-30,64,51,35,38,30,25,78,48,29,29.94,29.74,3,0,6,0.00
2013-3-31,66,54,46,54,46,34,98,75,44,29.76,29.50,5,0,7,0.25